Weather History for Montague, CA

Change the Weather History Date:

Sunday, January 12, 2014

  Actual Average Record
Temperature  
Mean Temperature 33 °F 35 °F  
Max Temperature 40 °F 44 °F 64 °F (1986)
Min Temperature 25 °F 26 °F 4 °F (1949)
Degree Days  
Heating Degree Days 32 30  
Month to date heating degree days 367 360  
Since 1 July heating degree days 2845 2593  
Cooling Degree Days 0 0  
Month to date cooling degree days 0 0  
Year to date cooling degree days 0 0  
Moisture  
Dew Point 29 °F    
Average Humidity 86    
Maximum Humidity 96    
Minimum Humidity 70    
Precipitation  
Precipitation T in 0.07 in 1.72 in (1980)
Month to date precipitation 0.11 1.29  
Year to date precipitation 0.11 1.29  
Sea Level Pressure  
Sea Level Pressure 30.51 in    
Wind  
Wind Speed 3 mph (SE)    
Max Wind Speed 10 mph    
Max Gust Speed 12 mph    
Visibility 9 miles    
Events Rain    
T = Trace of Precipitation, MM = Missing Value Source: NWS Daily Summary

Daily Weather History Graph

Daily Weather History Graph

Search for Another Location

Airport:

Trip Planner

Search our weather history database for the weather conditions in past years. The results will help you decide how hot, cold, wet, or windy it might be!

Date:

Astronomy

Jan. 12, 2014 Rise Set
Actual Time 7:35 AM PST 5:00 PM PST
Civil Twilight 7:05 AM PST 5:31 PM PST
Nautical Twilight 6:30 AM PST 6:06 PM PST
Astronomical Twilight 5:57 AM PST 6:39 PM PST
Moon 2:33 PM PST (1/12) 4:39 AM PST (1/12)
Length of Visible Light 10h 26m
Length of Day
9h 25m
Waxing Gibbous, 90% of the Moon is Illuminated
Jan 12
Waxing Gibbous
Jan 15
Full
Jan 23
Last Quarter
Jan 30
New
Feb 6
First Quarter

Hourly Weather History & Observations

Time (PST) Temp. Windchill Dew Point Humidity Pressure Visibility Wind Dir Wind Speed Gust Speed Precip Events Conditions
12:53 AM 33.1 °F - 27.0 °F 78% 30.29 in 10.0 mi Calm Calm - N/A   Partly Cloudy
1:53 AM 28.0 °F 22.8 °F 24.1 °F 85% 30.31 in 10.0 mi SSW 4.6 mph - N/A   Mostly Cloudy
2:53 AM 30.9 °F 27.5 °F 26.1 °F 82% 30.32 in 10.0 mi SSW 3.5 mph - N/A   Overcast
3:53 AM 37.0 °F 30.4 °F 28.0 °F 70% 30.35 in 10.0 mi West 9.2 mph - N/A   Mostly Cloudy
4:53 AM 28.0 °F - 23.0 °F 81% 30.37 in 10.0 mi Calm Calm - N/A   Partly Cloudy
5:53 AM 30.0 °F 26.5 °F 23.0 °F 75% 30.38 in 10.0 mi South 3.5 mph - N/A   Clear
6:53 AM 26.1 °F 21.9 °F 21.9 °F 84% 30.40 in 10.0 mi Variable 3.5 mph - N/A   Clear
7:53 AM 25.0 °F - 21.9 °F 88% 30.44 in 10.0 mi Calm Calm - N/A   Clear
8:53 AM 28.9 °F 23.9 °F 25.0 °F 85% 30.46 in 10.0 mi SE 4.6 mph - N/A   Overcast
9:53 AM 32.0 °F - 28.0 °F 85% 30.51 in 10.0 mi Calm Calm - N/A   Overcast
10:53 AM 33.1 °F 26.9 °F 28.0 °F 82% 30.52 in 10.0 mi WSW 6.9 mph - N/A   Overcast
11:53 AM 35.1 °F 31.0 °F 28.9 °F 78% 30.51 in 10.0 mi SW 4.6 mph - N/A   Overcast
12:53 PM 36.0 °F - 30.0 °F 79% 30.51 in 10.0 mi Calm Calm - N/A   Overcast
1:53 PM 37.9 °F - 32.0 °F 79% 30.51 in 10.0 mi Calm Calm - 0.00 in   Overcast
2:53 PM 39.9 °F 36.7 °F 33.1 °F 77% 30.53 in 10.0 mi NNE 4.6 mph - 0.00 in Rain Light Rain
3:53 PM 39.0 °F - 34.0 °F 82% 30.54 in 10.0 mi Calm Calm - 0.00 in   Overcast
4:53 PM 37.9 °F 33.5 °F 34.0 °F 86% 30.57 in 10.0 mi NNE 5.8 mph - 0.00 in Rain Light Rain
5:53 PM 36.0 °F 32.1 °F 34.0 °F 93% 30.57 in 10.0 mi NNE 4.6 mph - 0.00 in   Overcast
6:53 PM 36.0 °F - 34.0 °F 93% 30.60 in 10.0 mi North - - N/A   Overcast
7:53 PM 35.1 °F - 33.1 °F 92% 30.61 in 10.0 mi North - - N/A   Overcast
8:53 PM 34.0 °F 31.0 °F 32.0 °F 92% 30.63 in 10.0 mi NE 3.5 mph - N/A   Overcast
9:53 PM 34.0 °F - 32.0 °F 92% 30.64 in 10.0 mi Calm Calm - N/A   Overcast
10:53 PM 32.0 °F 28.7 °F 30.0 °F 92% 30.66 in 8.0 mi SE 3.5 mph - N/A   Overcast
11:16 PM 33.1 °F 30.0 °F 30.9 °F 92% 30.58 in 10.0 mi East 3.5 mph - N/A   Overcast
11:25 PM 33.1 °F 28.7 °F 32.0 °F 96% 30.58 in 9.0 mi ESE 4.6 mph - N/A   Overcast
11:45 PM 32.0 °F 28.7 °F 30.9 °F 96% 30.57 in 1.5 mi ESE 3.5 mph - N/A   Mostly Cloudy
11:50 PM 32.0 °F - 30.2 °F 93% 30.58 in 0.8 mi Calm Calm - N/A   Scattered Clouds
11:53 PM 32.0 °F - 30.9 °F 96% 30.67 in 0.8 mi Calm Calm - N/A   Scattered Clouds